User: anonymous   Login
Location: Caltech
(34.1382°N, 118.1253°W)
Time: 18:46:02
(UTC-07:00)
Language:

Cosmos 1937 Rocket - Orbit

View from above orbital plane
View from above orbital plane
View from above satellite
View from above satellite

Ground track
Ground track

The orbit data is extracted from the following two-line orbital elements,

1 19039U 88029B   16175.70782219  .00000061  00000-0  28577-4 0  9995
2 19039  74.0479 239.5368 0022927 143.7267 352.2141 14.38316492479316
Epoch (UTC): 23 June 2016 16:59:15
Eccentricity: 0.0022927
inclination: 74.0479°
perigee height: 747 km
apogee height: 780 km
right ascension of ascending node: 239.5368°
argument of perigee: 143.7267°
revolutions per day: 14.38316492
mean anomaly at epoch: 352.2141°
orbit number at epoch: 47931

The dashed part of the orbit path shows where the satellite is in the earth's shadow,  

DLR